Regional Weather Roundup
Issued by NWS Sioux Falls, SD

Home | Current Version | Previous Version | Graphics & Text | Print | Product List | Glossary On
Versions: 1 2 3 4 5 6 7 8 9 10 11 12 13 14 15 16 17 18 19 20 21 22 23 24 25 26 27 28 29 30 31 32 33 34 35 36 37 38 39 40 41 42 43 44 45 46 47 48 49 50
474
ASUS43 KFSD 161502
RWRFSD

WEATHER ROUNDUP FOR SE SOUTH DAKOTA/SW MINNESOTA/NW IOWA
NATIONAL WEATHER SERVICE SIOUX FALLS SD
900 AM CST MON JAN 16 2017

NOTE: "FAIR" INDICATES FEW OR NO CLOUDS BELOW 12,000 FEET WITH NO
SIGNIFICANT WEATHER AND OR OBSTRUCTIONS TO VISIBILITY.


SDZ038>040-050-052>070-161600-
SOUTHEAST SOUTH DAKOTA

CITY           SKY/WX    TMP DP  RH WIND       PRES   REMARKS
BROOKINGS      CLOUDY    12   9  87 CALM      30.06F
CHAMBERLAIN    CLOUDY    15  12  88 CALM      30.08F
HURON          CLOUDY    11   7  84 CALM      30.10F
MADISON          N/A     16  16 100 NE3         N/A
MITCHELL       CLOUDY    18  16  92 NW7       30.10S FOG     WCI   9
SIOUX FALLS    CLOUDY    24  20  84 NE3       30.07R
WINNER         FAIR      20  16  84 NW3       30.08S
YANKTON        CLOUDY    30  28  93 N5        30.04S WCI  25
$$

MNZ071-072-080-081-089-090-097-098-161600-
SOUTHWEST MINNESOTA

CITY           SKY/WX    TMP DP  RH WIND       PRES   REMARKS
FAIRMONT       CLOUDY    28  27  96 NE3       30.10S FOG
JACKSON        CLOUDY    27  27 100 NE6       30.08S FOG     WCI  20
LUVERNE        CLOUDY    25  21  86 NE6       30.08R WCI  18
MARSHALL       CLOUDY    16  14  92 W5        30.10F WCI   9
MONTEVIDEO     PTCLDY    16  16 100 CALM      30.13F
PIPESTONE      CLOUDY    23  19  86 NE3       30.05F
REDWOOD FALLS  CLOUDY    21  17  84 NE5       30.12S WCI  15
TRACY          CLOUDY    24  20  86 CALM      30.10R
WINDOM         CLOUDY    27  25  93 CALM      30.09S
WORTHINGTON    CLOUDY    26  23  88 NE6       30.07R WCI  19
$$

IAZ001>003-012>014-020>022-031-032-NEZ013-014-SDZ071-161600-
NORTHWEST IOWA

CITY           SKY/WX    TMP DP  RH WIND       PRES   REMARKS
CHEROKEE       CLOUDY    31  31 100 NE6       30.04F WCI  25
DENISON        CLOUDY    32  32 100 E12       29.98F FOG     WCI  23
ESTHERVILLE    CLOUDY    27  27 100 E7        30.07F FOG     WCI  19
LE MARS        CLOUDY    32  30  93 NE7       30.05S FOG     WCI  26
ORANGE CITY    CLOUDY    28  28 100 E5        30.04S FOG     WCI  23
SHELDON        CLOUDY    28  28 100 NE8       30.03F FOG     WCI  20
SIOUX CITY     CLOUDY    34  31  88 NE7       30.03F WCI  28
SPENCER        CLOUDY    29  29 100 E7        30.06F FOG     WCI  22
STORM LAKE     CLOUDY    30  30 100 E14       30.03F FOG     WCI  20
$$

ABBREVIATIONS USED IN REMARKS
   TC - TEMPERATURE IN CELSIUS
  WCI - WIND CHILL INDEX
   HX - HEAT INDEX
  VSB - VISIBILITY





USA.gov is the U.S. government's official web portal to all federal, state and local government web resources and services.